FNG200 EFTO-EFHK

Flight info

Callsign FNG200
Flight time 0h 17m
Altitude 5000
Route KIRKKONUMMI HAGIP
Aircraft B412/L-SDFZ/C

Departure

Time 2026-04-26 11:54
Airport Torbacka Airfield (EFTO)

Arrival

Time 2026-04-26 12:11
Airport Helsinki Vantaa Airport (EFHK)
Time Latitude Longitude Altitude Speed Heading
2026-04-26 11:51 60.07939 24.17400 19 ft 0 kts 179°
2026-04-26 11:52 60.07937 24.17400 28 ft 4 kts 191°
2026-04-26 11:53 60.07887 24.17450 59 ft 13 kts 54°
2026-04-26 11:53 60.07863 24.17496 54 ft 2 kts
2026-04-26 11:53 60.07854 24.17582 154 ft 30 kts 58°
2026-04-26 11:54 60.06897 24.19374 672 ft 144 kts 149°
2026-04-26 11:54 60.05959 24.20434 1034 ft 164 kts 158°
2026-04-26 11:54 60.04854 24.21373 1191 ft 177 kts 160°
2026-04-26 11:54 60.03711 24.22393 1290 ft 184 kts 158°
2026-04-26 11:55 60.02547 24.23503 1523 ft 184 kts 155°
2026-04-26 11:55 60.01394 24.24836 1535 ft 195 kts 149°
2026-04-26 11:55 60.00370 24.26567 1500 ft 189 kts 122°
2026-04-26 11:55 59.99839 24.28854 1671 ft 169 kts 101°
2026-04-26 11:56 59.99668 24.30999 1762 ft 149 kts 86°
2026-04-26 11:56 59.99520 24.32996 2071 ft 146 kts 93°
2026-04-26 11:56 59.99298 24.35054 2231 ft 152 kts 92°
2026-04-26 11:56 59.99321 24.37080 2313 ft 141 kts 67°
2026-04-26 11:57 59.99634 24.38804 2746 ft 129 kts 60°
2026-04-26 11:57 59.99669 24.40793 2784 ft 164 kts 92°
2026-04-26 11:57 59.99243 24.43044 2796 ft 174 kts 111°
2026-04-26 11:57 59.98605 24.45080 2951 ft 175 kts 121°
2026-04-26 11:58 59.97760 24.46748 2941 ft 165 kts 119°
2026-04-26 11:58 59.97512 24.48688 2896 ft 134 kts 73°
2026-04-26 11:58 59.97621 24.50477 2864 ft 129 kts 63°
2026-04-26 11:58 59.97797 24.52256 2853 ft 128 kts 62°
2026-04-26 11:59 59.98022 24.53985 2864 ft 122 kts 51°
2026-04-26 11:59 59.98379 24.55501 2872 ft 119 kts 47°
2026-04-26 11:59 59.98751 24.56968 2894 ft 117 kts 47°
2026-04-26 11:59 59.99125 24.58404 3045 ft 114 kts 42°
2026-04-26 12:00 59.99565 24.59715 3220 ft 113 kts 39°
2026-04-26 12:00 60.00019 24.61010 3399 ft 113 kts 39°
2026-04-26 12:00 60.00474 24.62303 3577 ft 113 kts 39°
2026-04-26 12:00 60.00935 24.63598 3754 ft 113 kts 39°
2026-04-26 12:01 60.01397 24.64893 3935 ft 114 kts 39°
2026-04-26 12:01 60.01860 24.66203 4042 ft 114 kts 39°
2026-04-26 12:01 60.02321 24.67514 4004 ft 112 kts 40°
2026-04-26 12:01 60.02767 24.68790 3978 ft 111 kts 40°
2026-04-26 12:02 60.03217 24.70081 3979 ft 113 kts 40°
2026-04-26 12:02 60.03673 24.71391 3977 ft 114 kts 40°
2026-04-26 12:02 60.04131 24.72707 3982 ft 115 kts 40°
2026-04-26 12:02 60.04594 24.74031 3986 ft 115 kts 40°
2026-04-26 12:03 60.05055 24.75352 3977 ft 115 kts 40°
2026-04-26 12:03 60.05521 24.76684 3976 ft 115 kts 40°
2026-04-26 12:03 60.06026 24.77899 3973 ft 110 kts 32°
2026-04-26 12:03 60.06575 24.78989 3977 ft 109 kts 31°
2026-04-26 12:04 60.07120 24.80053 3981 ft 110 kts 31°
2026-04-26 12:04 60.07670 24.81129 3985 ft 110 kts 31°
2026-04-26 12:04 60.08220 24.82204 3931 ft 109 kts 30°
2026-04-26 12:04 60.08776 24.83237 3741 ft 105 kts 23°
2026-04-26 12:05 60.09404 24.83932 3538 ft 101 kts 15°
2026-04-26 12:05 60.10065 24.84520 3276 ft 116 kts 17°
2026-04-26 12:05 60.10882 24.85248 2637 ft 135 kts 17°
2026-04-26 12:05 60.11739 24.85934 2227 ft 135 kts 15°
2026-04-26 12:06 60.12591 24.86599 1813 ft 135 kts 14°
2026-04-26 12:06 60.13486 24.87109 1383 ft 135 kts
2026-04-26 12:06 60.14372 24.87424 1120 ft 127 kts
2026-04-26 12:06 60.15282 24.87710 979 ft 135 kts 11°
2026-04-26 12:07 60.16226 24.88228 923 ft 146 kts 16°
2026-04-26 12:07 60.17189 24.88945 865 ft 150 kts 19°
2026-04-26 12:07 60.18146 24.89764 874 ft 150 kts 25°
2026-04-26 12:07 60.18984 24.91112 805 ft 159 kts 41°
2026-04-26 12:08 60.19820 24.92529 784 ft 154 kts 29°
2026-04-26 12:08 60.20777 24.93400 757 ft 150 kts 18°
2026-04-26 12:08 60.21745 24.94226 738 ft 152 kts 19°
2026-04-26 12:08 60.22771 24.94451 594 ft 150 kts 355°
2026-04-26 12:09 60.23833 24.94711 528 ft 156 kts 12°
2026-04-26 12:09 60.24853 24.95315 694 ft 155 kts 26°
2026-04-26 12:09 60.25709 24.96682 893 ft 157 kts 40°
2026-04-26 12:09 60.26512 24.98205 976 ft 159 kts 38°
2026-04-26 12:10 60.27356 24.99650 948 ft 159 kts 33°
2026-04-26 12:10 60.28215 25.00642 920 ft 126 kts
2026-04-26 12:10 60.29026 25.00552 760 ft 116 kts 341°
2026-04-26 12:10 60.29733 24.99810 578 ft 109 kts 329°
2026-04-26 12:11 60.30314 24.99191 437 ft 77 kts 327°
2026-04-26 12:11 60.30715 24.98818 260 ft 54 kts 325°
2026-04-26 12:11 60.30954 24.98589 204 ft 19 kts 291°
2026-04-26 12:11 60.31032 24.98584 193 ft 8 kts 256°
2026-04-26 12:12 60.31054 24.98654 189 ft 8 kts 247°
2026-04-26 12:12 60.31069 24.98704 195 ft 6 kts 347°
2026-04-26 12:12 60.31147 24.98896 201 ft 14 kts 301°
2026-04-26 12:12 60.31191 24.98788 200 ft 7 kts 324°
2026-04-26 12:13 60.31196 24.98779 186 ft 0 kts 332°
2026-04-26 12:15 60.31204 24.98776 191 ft 8 kts
2026-04-26 12:16 60.31299 24.98675 207 ft 38 kts 331°
2026-04-26 12:16 60.31698 24.98571 405 ft 79 kts 20°
2026-04-26 12:16 60.32102 24.99499 483 ft 86 kts
2026-04-26 12:16 60.32490 24.98665 500 ft 105 kts 289°
2026-04-26 12:17 60.32283 24.97129 423 ft 131 kts 236°
2026-04-26 12:17 60.31657 24.95667 341 ft 139 kts 232°
2026-04-26 12:17 60.31072 24.94130 315 ft 131 kts 267°
2026-04-26 12:17 60.31405 24.93042 323 ft 63 kts 356°
2026-04-26 12:18 60.31503 24.93321 187 ft 0 kts 184°
2026-04-26 12:18 60.31500 24.93322 186 ft 0 kts 160°
2026-04-26 12:18 60.31543 24.93207 186 ft 10 kts 317°
2026-04-26 12:19 60.31545 24.93205 186 ft 0 kts 305°